SCP
0 0 0 0 0 0 0 0 0 0 0 0 0 0 0 0 0 0 0 0 0 0
0 0 0 0 0 0 0 0 0 0 0 0 0 0 0 0 0 0 0 0 0 0
0 0 0 0 0 0 0 0 0 0 0 0 0 0 0 0 0 0 0 0 0 0
0 0 0 0 0 0 0 0 0 0 0 0 0 0 0 0 0 0 0 0 0 0
0 -0 0 0 0 0 0 0 0 0 0 0 0 0 0 0 0 0 0 0 0 0
0 -0 -0 0 0 0 0 0 0 0 0 0 0 0 0 0 0 0 0 0 0 0
0 0 0 0 0 0 0 0 0 0 0 0 0 0 0 0 0 0 0 0 0 0
0 0 0 0 0 0 0 0 0 0 0 0 0 0 0 0 0 0 0 0 0 0
0 0 0 0 0 0 0 0 0 0 0 0 0 0 0 0 0 0 0 0 0 0
0 0 0 0 0 0 0 0 0 0 0 0 0 0 0 0 0 0 0 0 0 0
0 0 0 0 0 0 0 0 0 0 0 0 0 0 0 0 0 0 0 0 0 0
0 0 0 0 0 0 0 0 0 0 0 0 0 0 0 0 0 0 0 0 0 0
0 0 0 0 0 0 0 0 0 0 0 0 0 0 0 0 0 0 0 0 0 0
0 0 0 0 0 0 0 0 0 0 0 0 0 0 0 0 0 0 0 0 0 0
Wind_Speed_500mb
46 51 43 48 50 48 49 50 58 67 71 73 75 80 81 83 83 81 83 83 81 69
25 40 45 46 41 54 49 46 44 49 51 55 64 66 65 61 48 42 45 48 49 48
14 19 19 24 20 17 12 14 11 15 23 31 35 33 32 27 28 34 33 23 17 17
23 30 26 24 32 25 14 16 15 15 10 8 13 17 16 13 11 11 7 8 10 12
31 34 41 50 45 42 41 37 35 33 35 34 33 32 32 30 27 22 20 19 19 18
60 56 57 57 53 52 53 53 52 49 53 53 49 44 41 35 32 30 29 28 27 27
69 64 63 64 64 65 64 63 59 59 56 55 52 47 43 39 37 34 34 33 31 32
76 71 70 70 68 65 65 63 60 56 54 52 52 47 40 36 34 34 34 36 37 39
72 70 71 68 67 64 66 63 58 57 54 54 58 48 46 42 41 38 39 39 40 39
70 71 69 65 63 65 65 59 61 60 54 54 53 46 44 41 40 41 43 45 47 50
68 70 65 61 63 62 59 60 60 56 54 51 53 45 43 41 43 46 50 52 54 55
64 65 63 64 63 61 56 56 56 53 50 49 49 45 46 47 49 51 53 53 56 60
60 62 63 61 61 59 57 57 53 51 52 48 47 46 48 52 55 59 61 61 63 64
60 60 58 56 55 53 52 49 50 50 51 51 50 51 50 52 58 65 69 72 77 77
Wind_Direction_500mb
269 241 243 255 239 241 231 250 251 248 248 250 249 247 251 255 253 249 245 249 255 253
250 241 231 227 231 233 236 257 257 257 256 272 273 269 272 268 262 262 264 258 255 255
132 194 170 169 165 175 179 259 278 294 306 301 290 283 284 281 281 272 270 275 281 298
48 66 74 85 77 72 73 60 58 53 46 48 33 22 27 35 30 5 12 346 340 348
79 66 65 69 70 74 78 74 66 62 67 65 58 55 56 58 58 61 59 51 34 35
88 85 82 79 76 76 75 73 73 75 72 71 70 67 66 65 65 62 58 48 39 31
84 80 78 79 80 78 76 76 77 75 76 76 71 66 63 59 58 53 49 44 34 23
90 90 88 83 81 80 78 78 78 78 78 76 72 66 60 56 52 48 44 40 36 34
92 89 84 82 79 76 75 74 74 71 70 70 70 65 60 52 51 49 46 41 35 29
85 83 80 78 77 75 74 73 72 71 68 69 69 63 58 54 50 45 41 32 25 18
85 84 83 81 77 75 73 70 70 71 73 71 69 61 54 47 43 38 32 23 15 7
85 85 82 78 76 75 74 73 71 68 63 59 58 50 43 35 32 28 21 13 6 1
84 80 78 77 73 69 65 64 60 57 53 48 46 40 32 26 21 16 10 3 358 355
79 75 74 74 72 67 62 58 54 49 45 41 38 33 24 16 12 6 2 357 353 351
Wind_Speed_850mb
46 51 43 48 50 48 49 50 58 67 71 73 75 80 81 83 83 81 83 83 81 69
25 40 45 46 41 54 49 46 44 49 51 55 64 66 65 61 48 42 45 48 49 48
14 19 19 24 20 17 12 14 11 15 23 31 35 33 32 27 28 34 33 23 17 17
23 30 26 24 32 25 14 16 15 15 10 8 13 17 16 13 11 11 7 8 10 12
31 34 41 50 45 42 41 37 35 33 35 34 33 32 32 30 27 22 20 19 19 18
60 56 57 57 53 52 53 53 52 49 53 53 49 44 41 35 32 30 29 28 27 27
69 64 63 64 64 65 64 63 59 59 56 55 52 47 43 39 37 34 34 33 31 32
76 71 70 70 68 65 65 63 60 56 54 52 52 47 40 36 34 34 34 36 37 39
72 70 71 68 67 64 66 63 58 57 54 54 58 48 46 42 41 38 39 39 40 39
70 71 69 65 63 65 65 59 61 60 54 54 53 46 44 41 40 41 43 45 47 50
68 70 65 61 63 62 59 60 60 56 54 51 53 45 43 41 43 46 50 52 54 55
64 65 63 64 63 61 56 56 56 53 50 49 49 45 46 47 49 51 53 53 56 60
60 62 63 61 61 59 57 57 53 51 52 48 47 46 48 52 55 59 61 61 63 64
60 60 58 56 55 53 52 49 50 50 51 51 50 51 50 52 58 65 69 72 77 77
Wind_Direction_850mb
269 241 243 255 239 241 231 250 251 248 248 250 249 247 251 255 253 249 245 249 255 253
250 241 231 227 231 233 236 257 257 257 256 272 273 269 272 268 262 262 264 258 255 255
132 194 170 169 165 175 179 259 278 294 306 301 290 283 284 281 281 272 270 275 281 298
48 66 74 85 77 72 73 60 58 53 46 48 33 22 27 35 30 5 12 346 340 348
79 66 65 69 70 74 78 74 66 62 67 65 58 55 56 58 58 61 59 51 34 35
88 85 82 79 76 76 75 73 73 75 72 71 70 67 66 65 65 62 58 48 39 31
84 80 78 79 80 78 76 76 77 75 76 76 71 66 63 59 58 53 49 44 34 23
90 90 88 83 81 80 78 78 78 78 78 76 72 66 60 56 52 48 44 40 36 34
92 89 84 82 79 76 75 74 74 71 70 70 70 65 60 52 51 49 46 41 35 29
85 83 80 78 77 75 74 73 72 71 68 69 69 63 58 54 50 45 41 32 25 18
85 84 83 81 77 75 73 70 70 71 73 71 69 61 54 47 43 38 32 23 15 7
85 85 82 78 76 75 74 73 71 68 63 59 58 50 43 35 32 28 21 13 6 1
84 80 78 77 73 69 65 64 60 57 53 48 46 40 32 26 21 16 10 3 358 355
79 75 74 74 72 67 62 58 54 49 45 41 38 33 24 16 12 6 2 357 353 351